www.pogodaiklimat.ru

Погода и климат >> Архив погоды >> Аргентина >> Сантьяго-дель-Эстеро


ПОГОДА в Сантьяго-дель-Эстеро

  • Прогноз погоды в Сантьяго-дель-Эстеро
  • Монитор погоды в Сантьяго-дель-Эстеро

АРХИВ ПОГОДЫ в Сантьяго-дель-Эстеро

Время (UTC), дата Ветер
(напр.,м/с)
 
Видим.   Явления Облачность Т
(С)
Тd
(С)
f
(%)
Тe
(С)
Тes
(С)
Комфортность P
(гПа)
Po
(гПа)
Тmin
(С)
Tmax
(С)
R
(мм)
R24
(мм)
S
(см)
15 9.07 В 2 8000 м дым 6/0
[Cs]
+18.6 +5.1 41 +19 +26 1017.3 993.4
18 9.07 В 4 10 км 5/0
[Cs]
+23.4 +6.5 34 +24 +29 комфорт 1013.3 989.8
21 9.07 В 1 8000 м мгла 9/0
[Ac As Cs]
+22.4 +9.1 43 +24 +24 комфорт 1012.9 989.2
00 10.07 Ю 1 8000 м мгла 9/0
[Ac As Cs]
+17.0 +9.0 59 +18 +18 1015.0 991.0 +3.0 +24.6
03 10.07 Ю 1 10 км 9/0
[Ac As]
+17.2 +9.2 59 +18 +18 1015.2 991.8
06 10.07 Ю 2 10 км 4/0
[Ac As]
+12.7 +7.9 73 +12 +12 1014.1 990.8
09 10.07 Ю 2 10 км 3/0
[Ac As]
+9.3 +6.5 83 +8 +8 1013.3 989.8
12 10.07 Ю 3 15 км 5/0
[Ci]
+10.4 +7.9 84 +8 +9 1015.4 991.7 +9.0 +17.5
15 10.07 Ю 5 15 км ясно +19.8 +10.3 54 +21 +25 комфорт 1015.3 992.0
18 10.07 В 3 15 км ясно +24.4 +11.0 43 +26 +32 жарко 1011.4 988.2
21 10.07 СВ 2 12 км ясно +24.2 +12.1 47 +26 +26 жарко 1010.7 987.4
00 11.07 штиль 0 10 км 3/0
[Ac cast]
+15.4 +11.7 79 +15 +15 1012.3 988.6 +10.4 +25.8
03 11.07 Ю 2 10 км ясно +12.6 +9.9 84 +12 +12 1012.4 989.0
06 11.07 Ю 2 10 км ясно +10.0 +8.8 92 +8 +8 1010.9 987.6
09 11.07 штиль 0 8000 м ясно +8.6 +8.2 97 +8 +8 1009.7 986.4
12 11.07 Ю 1 5000 м дымка 10/0
[Ac As]
+13.0 +11.7 92 +13 +13 1010.8 987.3 +8.0 +15.4
15 11.07 Ю 2 10 км 9/0
[Ac As]
+18.3 +11.8 66 +19 +22 1010.0 986.6
18 11.07 ЮВ 2 10 км ясно +23.8 +13.9 54 +26 +34 жарко 1005.7 982.5
21 11.07 В 1 10 км 3/0
[Ac und]
+24.5 +15.5 57 +27 +28 жарко 1005.4 982.2
00 12.07 Ю 2 10 км 5/0
[Ac und]
+20.2 +14.4 69 +23 +23 комфорт 1008.7 985.4 +13.0 +26.5
03 12.07 ЮЗ 2 10 км 5/0
[Ac As]
+19.2 +14.1 72 +21 +21 комфорт 1009.6 986.5
06 12.07 Ю 3 10 км 4/0
[Ac As]
+17.0 +13.1 78 +17 +17 1010.3 987.3
09 12.07 ЮЗ 2 10 км 1/0
[]
+14.6 +12.0 84 +14 +14 1011.0 987.8
12 12.07 Ю 5 12 км 9/0
[Ac As]
+15.8 +9.3 65 +15 +15 1014.4 991.0 +14.5 +21.0
15 12.07 Ю 5 10 км 10/0
[Ac As]
+18.8 +8.5 51 +19 +20 1016.0 992.6
18 12.07 Ю 5 10 км 10/0
[Ac As]
+19.6 +10.5 56 +21 +22 комфорт 1014.5 991.2
21 12.07 Ю 3 10 км 10/0
[Ac As]
+19.2 +10.6 57 +20 +20 1014.2 990.8
00 13.07 штиль 0 10 км 10/0
[Ac As]
+16.6 +11.5 72 +17 +17 1016.3 992.8 +15.8 +20.0
03 13.07 ЮВ 2 10 км 10/0
[Ac As]
+16.8 +9.6 62 +17 +17 1017.6 994.2
06 13.07 Ю 1 10 км 9/0
[Ac As]
+14.8 +10.9 77 +15 +15 1016.6 993.2
09 13.07 Ю 2 10 км 10/0
[Ac As]
+13.1 +9.0 76 +12 +12 1015.9 992.4
12 13.07 Ю 3 10 км 9/6 1050 м
[St Ac As]
+14.4 +8.1 66 +14 +14 1016.6 993.0 +12.6 +17.0
15 13.07 ЮВ 2 10 км 9/5 1050 м
[St Ac und]
+16.8 +9.6 62 +17 +19 1016.5 993.0
18 13.07 Ю 2 10 км 9/0
[Ac As]
+17.6 +9.7 60 +18 +21 1013.6 990.2
21 13.07 Ю 4 10 км 9/0
[Ac As]
+17.4 +9.9 61 +17 +17 1013.1 989.6
00 14.07 Ю 2 10 км 10/0
[Ac As]
+16.0 +11.2 73 +16 +16 1015.9 992.2 +14.4 +18.0
03 14.07 Ю 3 10 км 10/0
[Ac As]
+15.4 +10.9 75 +15 +15 1017.8 994.2
06 14.07 Ю 3 10 км 10/4 900 м
[Sc Ac As]
+14.6 +11.3 81 +14 +14 1018.3 994.6
09 14.07 Ю 3 8000 м слаб. морось 10/10 600 м
[St]
+12.6 +11.9 95 +11 +11 1017.5 993.8
12 14.07 ЮЗ 1 10 км {морось} 10/10 750 м
[St]
+13.2 +10.9 86 +13 +13 1018.8 995.0 +12.5 +16.0 0.0
15 14.07 ЮВ 3 10 км 9/6 900 м
[St Ac As]
+16.6 +10.7 68 +17 +18 1018.5 994.9
18 14.07 Ю 2 10 км 9/5 750 м
[St Ac und]
+18.6 +11.8 65 +20 +21 1014.8 991.4
21 14.07 В 2 10 км 10/0
[Ac As]
+19.0 +13.1 69 +21 +21 комфорт 1014.6 991.0
00 15.07 штиль 0 10 км 10/0
[Ac As]
+17.6 +13.4 76 +18 +18 1016.6 993.0 +13.2 +20.0
03 15.07 Ю 1 10 км 10/0
[Ac As]
+16.9 +13.0 78 +18 +18 1017.6 994.1
06 15.07 ЮВ 1 10 км 10/5 1200 м
[Sc Ac As]
+16.0 +13.2 83 +17 +17 1018.5 995.0
09 15.07 Ю 2 10 км 10/5 1200 м
[Sc Ac As]
+15.5 +12.8 84 +16 +16 1018.9 995.4
12 15.07 Ю 3 10 км 10/5 900 м
[Sc Ac As]
+15.0 +10.9 76 +14 +14 1021.6 998.0 +14.5 +17.6
15 15.07 Ю 3 10 км 10/6 1200 м
[Sc Ac As]
+17.0 +11.3 69 +17 +18 1023.2 999.6
18 15.07 ЮВ 2 10 км 10/0
[Ac As]
+19.4 +13.7 70 +21 +24 комфорт 1011.3 998.0
21 15.07 ЮВ 2 10 км 6/0
[Ac und]
+18.8 +12.8 68 +20 +21 1021.2 997.7
00 16.07 З 1 10 км 6/0
[Ac As]
+13.6 +11.4 87 +14 +14 1022.8 999.0 +13.6 +21.0
03 16.07 Ю 1 10 км 5/0
[Ac As]
+13.4 +11.2 87 +14 +14 1023.7 999.8
06 16.07 Ю 1 5000 м дымка ясно +9.4 +8.6 95 +9 +9 1023.2 999.4
09 16.07 ЮВ 1 8000 м дымка ясно +6.6 +5.9 95 +5 +5 1021.8 997.8
12 16.07 В 2 7000 м дымка 8/0
[Ac As]
+10.7 +9.1 90 +9 +10 1022.5 998.5 +6.6 +14.2

 

Местоположение метеостанции Сантьяго-дель-Эстеро (Аргентина): широта -27.76 долгота -64.30 высота над уровнем моря 199 м.

В архиве по умолчанию представлена погода в Сантьяго-дель-Эстеро за последнюю неделю. Архивные данные за месяц целиком и за предыдущие месяцы, начиная с января 2011 года, Вы можете получить, выбрав интересующий диапазон дат из раскрывающегося списка и нажав кнопку "Ввод!".


*Определитесь, кто Вы:
робот инопланетянин человек

Внимание! Время в таблицах - всемирное. Для получения местного времени необходимо прибавить поправку, которая равна -3 ч.

Смотрите также архив погоды в соседних городах и на ближайших метеорологических станциях:

Погода в Сан-Мигель-де-Тукумане (Аргентина) (128 км)
Погода в Сан-Фернандо-дель-Валье-де-Катамарке (Аргентина) (171 км)
Погода в Вилла де Мария дель Рио Секо (Аргентина) (246 км)
Погода в Ла-Риохе (Аргентина) (304 км)
Погода в Сересе (Аргентина) (329 км)
Погода в Сальте (Аргентина) (344 км)
Погода в Чамикале (Аргентина) (347 км)
Погода в Сан-Сальвадор-де-Жужуе (Аргентина) (384 км)
Погода в Пресиденсиа-Роке-Саэнс-Пеньи (Аргентина) (395 км)
Погода в Кордове (Аргентина) (395 км)

Пояснения к столбцам:

Ветер - указаны скорость ветра в м/с - средняя за 10 мин, порывы в срок и между сроками (в фигурных скобках) и направление, откуда дует ветер: С - северный, СВ - северо-восточный, В - восточный, ЮВ - юго-восточный, Ю - южный, ЮЗ - юго-западный, З - западный, СЗ - северо-западный.
Видимость - горизонтальная дальность видимости в метрах или километрах. При видимости от 1 до 10 км при отсутствии осадков обычно наблюдается дымка, при ухудшении видимости до 1 км и менее - туман. В сухую погоду видимость может ухудшаться дымом, пылью или мглою.
Явления - указаны атмосферные явления, наблюдавшиеся в срок или в последний час перед сроком; фигурными скобками обозначены явления, наблюдавшиеся между сроками (за 1-3 часа до срока); квадратными скобками обозначены град или гололедные отложения с указанием их диаметра в мм.
Облачность - указаны через наклонную черту общая и нижняя облачность в баллах и высота нижней границы облаков в метрах; квадратными скобками обозначены формы облаков: Ci - перистые, Cs - перисто-слоистые, Cc - перисто-кучевые, Ac - высококучевые, As - высокослоистые, Sc - слоисто-кучевые, Ns - слоисто-дождевые, Cu - кучевые, Cb - кучево-дождевые. Подробнее классификацию облаков см. в Атласе облаков (PDF).
T - Температура воздуха - температура, измеренная на высоте 2 м над землей.
Td - Температура точки росы - температура, при понижении до которой содержащийся в воздухе водяной пар достигнет насыщения.
f - Относительная влажность воздуха - влажноcть воздуха, измеренная на высоте 2 м над землей.
Te - Эффективная температура - температура, которую ощущает одетый по сезону человек в тени. Характеристика душности погоды. При расчете учитывается влияние влажности воздуха и скорости ветра на теплоощущения человека.
Tes - Эффективная температура на солнце - температура, которую ощущает человек, с поправкой на солнечный нагрев. Характеристика знойности погоды. Зависит от высоты солнца над горизонтом, облачности и скорости ветра. Ночью, в пасмурную погоду, а также при ветре 12 м/с и более поправка равна нулю.
P - Атмосферное давление - приведенное к уровню моря атмосферное давление.
Po - Атмосферное давление - измеренное на уровне метеостанции атмосферное давление.
Tmin - Минимальная температура - минимум температуры воздуха на высоте 2 м над землей.
Tmax - Максимальная температура - максимум температуры воздуха на высоте 2 м над землей.
R - Количество осадков - Количество выпавших осадков за период времени, мм. При наведении курсора мыши на число - период времени, за который выпало указанное количество осадков.
R24 - Количество осадков - Количество выпавших осадков за 24 часа, мм.
S - Снежный покров - Высота снежного покрова, см. При наведении курсора мыши на число - состояние снежного покрова и степень покрытия местности в баллах.